APG092 RPLL-VMMC

Flight info

Callsign APG092
Flight time N/A
Altitude 38000
Route SIRCA L628 DODUS W3 AKOTA A583 SABNO V542 SUKER CHALI
Aircraft A20N/M-SDE2E3FGHIRWXY/LB1

Departure

Time 2026-04-30 13:39
Airport Ninoy Aquino International Airport (RPLL)

Arrival

Time N/A
Airport Macau International Airport (VMMC)
Time Latitude Longitude Altitude Speed Heading
2026-04-30 12:57 14.50908 121.01413 71 ft 0 kts 329°
2026-04-30 13:22 14.50885 121.01428 61 ft 2 kts 327°
2026-04-30 13:22 14.50871 121.01437 61 ft 2 kts 326°
2026-04-30 13:22 14.50845 121.01459 68 ft 2 kts 309°
2026-04-30 13:23 14.50840 121.01474 64 ft 2 kts 254°
2026-04-30 13:23 14.50843 121.01481 71 ft 0 kts 242°
2026-04-30 13:31 14.50832 121.01462 69 ft 3 kts 242°
2026-04-30 13:31 14.50693 121.01318 67 ft 13 kts 170°
2026-04-30 13:32 14.50586 121.01166 66 ft 22 kts 240°
2026-04-30 13:32 14.50438 121.00904 67 ft 21 kts 240°
2026-04-30 13:33 14.50295 121.00648 62 ft 20 kts 240°
2026-04-30 13:33 14.50162 121.00406 66 ft 17 kts 241°
2026-04-30 13:34 14.50098 121.00366 65 ft 7 kts 150°
2026-04-30 13:34 14.50095 121.00369 66 ft 0 kts 150°
2026-04-30 13:38 14.50046 121.00397 66 ft 9 kts 151°
2026-04-30 13:38 14.50028 121.00447 67 ft 9 kts 57°
2026-04-30 13:38 14.50145 121.00652 64 ft 56 kts 60°
2026-04-30 13:39 14.50909 121.02033 72 ft 159 kts 62°
2026-04-30 13:39 14.52038 121.04054 924 ft 167 kts 60°
2026-04-30 13:40 14.52670 121.05099 1299 ft 176 kts 58°
2026-04-30 13:40 14.53346 121.06212 1620 ft 191 kts 59°
2026-04-30 13:40 14.54087 121.07458 1938 ft 215 kts 59°
2026-04-30 13:40 14.54914 121.08879 2112 ft 247 kts 59°
2026-04-30 13:41 14.55807 121.10459 2632 ft 257 kts 60°
2026-04-30 13:41 14.56697 121.12049 3452 ft 254 kts 60°
2026-04-30 13:41 14.57585 121.13613 4179 ft 257 kts 57°
2026-04-30 13:41 14.58886 121.14909 4779 ft 266 kts 30°
2026-04-30 13:42 14.60682 121.15437 5423 ft 274 kts
2026-04-30 13:42 14.62554 121.15047 6169 ft 278 kts 337°
2026-04-30 13:42 14.65791 121.12980 7518 ft 285 kts 327°
2026-04-30 13:43 14.67448 121.11810 8168 ft 289 kts 327°
2026-04-30 13:43 14.69099 121.10640 8859 ft 293 kts 327°
2026-04-30 13:43 14.70795 121.09443 9556 ft 297 kts 327°
2026-04-30 13:44 14.74148 121.07082 10446 ft 318 kts 327°
2026-04-30 13:44 14.76034 121.05763 10704 ft 335 kts 327°
2026-04-30 13:44 14.77467 121.04763 10957 ft 343 kts 327°
2026-04-30 13:44 14.79066 121.03650 11332 ft 348 kts 327°
2026-04-30 13:45 14.83244 121.00756 12421 ft 356 kts 327°
2026-04-30 13:45 14.85336 120.99316 12983 ft 359 kts 327°
2026-04-30 13:45 14.87431 120.97885 13552 ft 362 kts 327°
2026-04-30 13:46 14.89543 120.96448 14056 ft 365 kts 327°
2026-04-30 13:46 14.91678 120.95001 14540 ft 368 kts 327°
2026-04-30 13:46 14.93836 120.93543 15039 ft 371 kts 327°
2026-04-30 13:46 14.95983 120.92097 15531 ft 374 kts 327°
2026-04-30 13:47 14.98153 120.90582 16037 ft 377 kts 321°
2026-04-30 13:47 14.99880 120.88546 16542 ft 380 kts 300°
2026-04-30 13:47 15.00851 120.86012 17037 ft 382 kts 281°
2026-04-30 13:47 15.00944 120.83273 17521 ft 383 kts 261°
2026-04-30 13:48 15.00146 120.80650 17993 ft 384 kts 242°
2026-04-30 13:48 14.98883 120.78202 18450 ft 386 kts 241°
2026-04-30 13:48 14.97626 120.75736 18847 ft 389 kts 241°
2026-04-30 13:48 14.96362 120.73247 19252 ft 391 kts 241°
2026-04-30 13:49 14.95104 120.70777 19655 ft 394 kts 240°
2026-04-30 13:49 14.93504 120.68491 20028 ft 394 kts 224°
2026-04-30 13:49 14.91333 120.66703 20432 ft 395 kts 213°
2026-04-30 13:49 14.89105 120.65100 20826 ft 397 kts 216°
2026-04-30 13:50 14.86980 120.63256 21238 ft 400 kts 221°
2026-04-30 13:50 14.83124 120.59074 22019 ft 407 kts 238°
2026-04-30 13:50 14.82061 120.56367 22410 ft 411 kts 257°
2026-04-30 13:51 14.81863 120.53422 22804 ft 414 kts 275°
2026-04-30 13:51 14.82552 120.50532 23197 ft 418 kts 293°
2026-04-30 13:51 14.84075 120.47970 23581 ft 421 kts 309°
2026-04-30 13:51 14.86038 120.45712 23939 ft 422 kts 313°
2026-04-30 13:52 14.88083 120.43511 24310 ft 424 kts 313°
2026-04-30 13:52 14.90114 120.41348 24664 ft 425 kts 313°
2026-04-30 13:52 14.92184 120.39151 25027 ft 427 kts 313°
2026-04-30 13:52 14.94265 120.36945 25393 ft 428 kts 313°
2026-04-30 13:53 14.96350 120.34737 25754 ft 430 kts 313°
2026-04-30 13:53 14.98455 120.32514 26087 ft 432 kts 313°
2026-04-30 13:53 15.00565 120.30286 26439 ft 434 kts 313°
2026-04-30 13:53 15.01964 120.28811 26659 ft 435 kts 313°
2026-04-30 13:54 15.04809 120.25818 27098 ft 437 kts 313°
2026-04-30 13:54 15.06948 120.23574 27443 ft 439 kts 313°
2026-04-30 13:54 15.09097 120.21324 27775 ft 440 kts 313°
2026-04-30 13:54 15.11254 120.19071 28095 ft 442 kts 313°
2026-04-30 13:55 15.13431 120.16804 28407 ft 443 kts 313°
2026-04-30 13:55 15.14870 120.15309 28627 ft 444 kts 313°
2026-04-30 13:55 15.17795 120.12274 29025 ft 446 kts 313°
2026-04-30 13:55 15.19256 120.10762 29219 ft 447 kts 313°
2026-04-30 13:56 15.21464 120.08480 29517 ft 449 kts 313°
2026-04-30 13:56 15.24401 120.05447 29893 ft 451 kts 313°
2026-04-30 13:56 15.25904 120.03899 30074 ft 452 kts 313°
2026-04-30 13:56 15.28868 120.00856 30380 ft 454 kts 313°
2026-04-30 13:57 15.30388 119.99298 30519 ft 455 kts 313°
2026-04-30 13:57 15.32640 119.96992 30786 ft 456 kts 313°
2026-04-30 13:57 15.34869 119.94713 31096 ft 455 kts 313°
2026-04-30 13:57 15.37121 119.92417 31407 ft 454 kts 313°
2026-04-30 13:58 15.39376 119.90124 31704 ft 453 kts 313°
2026-04-30 13:58 15.43894 119.85546 32261 ft 453 kts 313°
2026-04-30 13:58 15.46149 119.83272 32552 ft 453 kts 313°
2026-04-30 13:59 15.48405 119.81000 32830 ft 452 kts 313°
2026-04-30 13:59 15.50667 119.78726 33099 ft 452 kts 313°
2026-04-30 13:59 15.52926 119.76461 33367 ft 452 kts 313°
2026-04-30 13:59 15.55188 119.74199 33644 ft 451 kts 313°
2026-04-30 14:00 15.57449 119.71944 33918 ft 451 kts 313°
2026-04-30 14:00 15.61948 119.67466 34336 ft 451 kts 313°
2026-04-30 14:00 15.64212 119.65220 34576 ft 450 kts 313°
2026-04-30 14:01 15.66474 119.62979 34805 ft 449 kts 313°
2026-04-30 14:01 15.68734 119.60742 35020 ft 449 kts 313°
2026-04-30 14:01 15.70999 119.58503 35222 ft 449 kts 313°
2026-04-30 14:01 15.73259 119.56271 35436 ft 448 kts 313°
2026-04-30 14:02 15.75519 119.54043 35639 ft 448 kts 313°
2026-04-30 14:02 15.77780 119.51818 35843 ft 448 kts 313°
2026-04-30 14:02 15.80039 119.49599 36023 ft 447 kts 313°
2026-04-30 14:02 15.82306 119.47378 36204 ft 447 kts 313°
2026-04-30 14:03 15.84571 119.45163 36383 ft 447 kts 313°
2026-04-30 14:03 15.86834 119.42955 36554 ft 447 kts 313°
2026-04-30 14:03 15.89101 119.40746 36745 ft 446 kts 313°
2026-04-30 14:03 15.91363 119.38546 36916 ft 446 kts 313°
2026-04-30 14:04 15.93628 119.36344 37080 ft 446 kts 313°
2026-04-30 14:04 15.95898 119.34142 37250 ft 445 kts 313°
2026-04-30 14:04 15.98166 119.31944 37413 ft 445 kts 313°
2026-04-30 14:04 16.00432 119.29752 37583 ft 444 kts 313°
2026-04-30 14:05 16.02669 119.27592 37735 ft 444 kts 313°
2026-04-30 14:05 16.04936 119.25406 37892 ft 444 kts 313°
2026-04-30 14:05 16.09468 119.21047 37967 ft 442 kts 313°
2026-04-30 14:06 16.16240 119.14552 37960 ft 440 kts 313°
2026-04-30 14:07 16.23013 119.08076 37964 ft 440 kts 313°
2026-04-30 14:08 16.29754 119.01652 37968 ft 439 kts 313°
2026-04-30 14:08 16.36395 118.95082 37968 ft 438 kts 311°
2026-04-30 14:09 16.40746 118.90635 37972 ft 438 kts 311°
2026-04-30 14:10 16.47266 118.83974 37975 ft 437 kts 311°
2026-04-30 14:10 16.51616 118.79530 37977 ft 437 kts 311°
2026-04-30 14:11 16.55933 118.75122 37980 ft 437 kts 311°
2026-04-30 14:11 16.60276 118.70691 37978 ft 437 kts 311°
2026-04-30 14:12 16.64627 118.66251 37976 ft 436 kts 311°
2026-04-30 14:12 16.68970 118.61822 37980 ft 436 kts 311°
2026-04-30 14:13 16.73303 118.57401 37982 ft 436 kts 311°
2026-04-30 14:13 16.77612 118.53005 37973 ft 435 kts 311°
2026-04-30 14:14 16.81946 118.48586 37984 ft 435 kts 311°
2026-04-30 14:14 16.86271 118.44174 37985 ft 434 kts 311°
2026-04-30 14:15 16.90596 118.39760 37977 ft 434 kts 311°
2026-04-30 14:15 16.94916 118.35349 37983 ft 434 kts 311°
2026-04-30 14:16 16.99220 118.30948 37979 ft 433 kts 311°
2026-04-30 14:16 17.03528 118.26539 37987 ft 433 kts 311°
2026-04-30 14:17 17.07799 118.22165 37982 ft 432 kts 311°
2026-04-30 14:17 17.12093 118.17755 37979 ft 432 kts 311°
2026-04-30 14:18 17.16371 118.13349 37978 ft 432 kts 311°
2026-04-30 14:18 17.22766 118.06721 37990 ft 431 kts 310°
2026-04-30 14:19 17.28599 117.99637 37986 ft 426 kts 302°
2026-04-30 14:20 17.32084 117.94606 37983 ft 426 kts 302°
2026-04-30 14:20 17.37262 117.87068 37986 ft 427 kts 302°
2026-04-30 14:21 17.40733 117.82006 37988 ft 427 kts 303°
2026-04-30 14:22 17.46769 117.75060 37992 ft 432 kts 311°
2026-04-30 14:22 17.53097 117.68381 37985 ft 432 kts 311°
2026-04-30 14:23 17.61572 117.59413 37986 ft 433 kts 311°
2026-04-30 14:24 17.67787 117.52552 37985 ft 432 kts 307°
2026-04-30 14:25 17.75581 117.42961 37993 ft 432 kts 307°
2026-04-30 14:26 17.81373 117.35762 37994 ft 432 kts 307°
2026-04-30 14:27 17.87173 117.28490 37994 ft 432 kts 307°
2026-04-30 14:27 17.91021 117.23637 37995 ft 432 kts 307°
2026-04-30 14:28 17.96778 117.16344 37991 ft 432 kts 307°
2026-04-30 14:28 18.00588 117.11509 37996 ft 432 kts 307°
2026-04-30 14:29 18.07599 117.02598 37997 ft 431 kts 307°
2026-04-30 14:31 18.17813 116.89676 38000 ft 429 kts 307°
2026-04-30 14:31 18.23528 116.82488 37998 ft 428 kts 307°
2026-04-30 14:32 18.29273 116.75292 37998 ft 427 kts 307°
2026-04-30 14:33 18.33102 116.70516 37998 ft 426 kts 307°
2026-04-30 14:33 18.38848 116.63352 38003 ft 425 kts 307°
2026-04-30 14:34 18.42640 116.58628 38004 ft 425 kts 307°
2026-04-30 14:34 18.46460 116.53868 38000 ft 424 kts 307°
2026-04-30 14:35 18.52169 116.46756 38002 ft 423 kts 307°
2026-04-30 14:36 18.55934 116.41989 38002 ft 422 kts 305°
2026-04-30 14:36 18.59571 116.37130 38001 ft 422 kts 305°
2026-04-30 14:37 18.63199 116.32266 38004 ft 421 kts 305°
2026-04-30 14:37 18.66794 116.27445 38004 ft 421 kts 305°
2026-04-30 14:38 18.70412 116.22596 38006 ft 420 kts 305°
2026-04-30 14:38 18.74029 116.17753 38006 ft 420 kts 305°
2026-04-30 14:39 18.77647 116.12911 38006 ft 420 kts 305°
2026-04-30 14:39 18.81244 116.08095 38011 ft 419 kts 305°
2026-04-30 14:40 18.86664 116.00847 38008 ft 419 kts 305°
2026-04-30 14:40 18.90282 115.96008 38006 ft 419 kts 305°
2026-04-30 14:41 18.93898 115.91177 38008 ft 419 kts 305°
2026-04-30 14:41 18.97509 115.86356 38008 ft 419 kts 305°
2026-04-30 14:42 19.01106 115.81558 38005 ft 418 kts 305°
2026-04-30 14:42 19.04721 115.76738 38006 ft 418 kts 305°
2026-04-30 14:43 19.08994 115.72517 38007 ft 425 kts 321°
2026-04-30 14:43 19.13903 115.68987 38009 ft 427 kts 322°
2026-04-30 14:44 19.18005 115.66085 38008 ft 427 kts 322°
2026-04-30 14:44 19.22955 115.62586 38010 ft 427 kts 322°
2026-04-30 14:45 19.27903 115.59093 38017 ft 427 kts 322°
2026-04-30 14:45 19.32823 115.55626 38011 ft 428 kts 322°
2026-04-30 14:46 19.37785 115.52135 38008 ft 428 kts 322°
2026-04-30 14:46 19.42756 115.48640 38013 ft 428 kts 322°
2026-04-30 14:47 19.47725 115.45153 38020 ft 428 kts 322°
2026-04-30 14:47 19.52672 115.41686 38023 ft 429 kts 322°
2026-04-30 14:48 19.57653 115.38204 38012 ft 429 kts 322°
2026-04-30 14:48 19.62633 115.34728 38023 ft 428 kts 322°
2026-04-30 14:49 19.67619 115.31252 38014 ft 428 kts 322°
2026-04-30 14:49 19.72600 115.27783 38014 ft 428 kts 322°
2026-04-30 14:50 19.80035 115.22618 38022 ft 427 kts 322°
2026-04-30 14:51 19.87493 115.17443 38018 ft 426 kts 321°
2026-04-30 14:52 19.94871 115.12161 38020 ft 425 kts 321°
2026-04-30 14:52 20.02233 115.06877 38021 ft 425 kts 321°
2026-04-30 14:53 20.09560 115.01628 38020 ft 425 kts 321°
2026-04-30 14:54 20.19383 114.94604 38024 ft 425 kts 321°
2026-04-30 14:55 20.26746 114.89346 38025 ft 425 kts 321°
2026-04-30 14:56 20.36557 114.82340 36979 ft 424 kts 321°
2026-04-30 14:56 20.41421 114.78825 35737 ft 426 kts 321°
2026-04-30 14:57 20.43874 114.77040 35122 ft 427 kts 321°
2026-04-30 14:57 20.48791 114.73437 33893 ft 430 kts 321°
2026-04-30 14:58 20.53699 114.69826 32830 ft 425 kts 321°
2026-04-30 14:58 20.56121 114.68041 32368 ft 421 kts 321°
2026-04-30 14:58 20.60891 114.64523 31474 ft 413 kts 321°
2026-04-30 14:59 20.65548 114.61083 30621 ft 406 kts 321°
2026-04-30 15:00 20.72420 114.55987 29164 ft 397 kts 321°
2026-04-30 15:00 20.76937 114.52633 28118 ft 393 kts 321°
2026-04-30 15:01 20.81419 114.49305 27135 ft 389 kts 321°
2026-04-30 15:01 20.83605 114.47683 26666 ft 387 kts 321°
2026-04-30 15:01 20.88007 114.44416 25739 ft 383 kts 321°
2026-04-30 15:02 20.90171 114.42765 25284 ft 381 kts 318°
2026-04-30 15:02 20.92247 114.41018 24837 ft 378 kts 317°
2026-04-30 15:03 20.98356 114.35760 23485 ft 374 kts 317°
2026-04-30 15:03 21.02377 114.32295 22565 ft 368 kts 317°
2026-04-30 15:04 21.06319 114.28893 21701 ft 360 kts 317°
2026-04-30 15:04 21.12094 114.23896 20423 ft 350 kts 317°
2026-04-30 15:05 21.17673 114.19055 19202 ft 341 kts 317°
2026-04-30 15:06 21.21325 114.15875 18387 ft 335 kts 317°
2026-04-30 15:06 21.24926 114.12728 17420 ft 331 kts 317°
2026-04-30 15:07 21.28479 114.09611 16441 ft 329 kts 317°
2026-04-30 15:07 21.31990 114.06516 15507 ft 325 kts 317°
2026-04-30 15:08 21.35452 114.03453 14600 ft 323 kts 317°
2026-04-30 15:08 21.40615 113.98864 13234 ft 318 kts 317°
2026-04-30 15:09 21.43989 113.95862 12359 ft 312 kts 317°
2026-04-30 15:09 21.47278 113.92932 11482 ft 305 kts 317°
2026-04-30 15:10 21.50507 113.90043 10247 ft 299 kts 317°
2026-04-30 15:11 21.56621 113.84527 8029 ft 279 kts 317°
2026-04-30 15:11 21.59553 113.81837 7059 ft 278 kts 317°
2026-04-30 15:12 21.63880 113.77804 6025 ft 271 kts 317°
2026-04-30 15:13 21.66759 113.75179 5984 ft 273 kts 326°
2026-04-30 15:14 21.74003 113.72778 4739 ft 269 kts 351°
2026-04-30 15:14 21.79499 113.72179 3989 ft 262 kts 346°
2026-04-30 15:16 21.88168 113.69013 3986 ft 264 kts 342°
2026-04-30 15:17 21.94757 113.66586 3923 ft 253 kts 342°
2026-04-30 15:18 22.02287 113.63809 2364 ft 204 kts 343°
2026-04-30 15:19 22.06099 113.62403 1602 ft 181 kts 343°